STARLINK-1686 (46328 NORAD) Tracking and Keplerian Element Data

This shows tracking and keplerian element data for the satellite.

Feedback or suggestion? Click here.




ElementValue
Catalog46328
NameSTARLINK-1686
Epoch Orbit1421
Epoch Day333.08334491
Epoch Year2020
RAAN246.4431
Inclination53.2153
Eccentricity0.001056
Argument of Perigee122.3798
Mean Anonmoly222.0048
Mean Motion14.64258044
Decay Rate-1.794E-05
L11 46328U 20062D 20333.08334491 -.00001794 00000-0 -30084-3 0 9997
L22 46328 53.2153 246.4431 0010560 122.3798 222.0048 14.64258044 14216

Live tracking and technical data element details for STARLINK-1686 (NORAD 46328). STARLINK-1686 can be tracked NOW for your location showing map with azimuth and elevation plus other details from your city location.

Track the satellite on the map from your city or location and see movement details for azimuth, elevation, latitude, longitude, range, height, and movement on the map or in text.







IsCatalogInMostPopularTable: catalog: 46328, numindb: 19
Update: records affected: 1



GetName: 46328 STARLINK-1686

Hit Count: updated at: Sun, 29 Nov 2020 10:06:25 GMT